Weather History for Baltimore Martin, MD

Change the Weather History Date:

Saturday, January 19, 2013

  Actual Average Record
Temperature  
Mean Temperature 41 °F -  
Max Temperature 50 °F 36 °F 51 °F (1999)
Min Temperature 32 °F 23 °F 8 °F (1997)
Degree Days  
Heating Degree Days 24    
Moisture  
Dew Point 27 °F    
Average Humidity 62    
Maximum Humidity 76    
Minimum Humidity 43    
Precipitation  
Precipitation 0.00 in - - ()
Sea Level Pressure  
Sea Level Pressure 30.27 in    
Wind  
Wind Speed 8 mph (South)    
Max Wind Speed 10 mph    
Max Gust Speed 20 mph    
Visibility 10 miles    
Events      
Averages and records for this station are not official NWS values.
T = Trace of Precipitation, MM = Missing Value Source: NWS Daily Summary

Daily Weather History Graph

Daily Weather History Graph

Search for Another Location

Airport:

Trip Planner

Search our weather history database for the weather conditions in past years. The results will help you decide how hot, cold, wet, or windy it might be!

Date:

Astronomy

Jan. 19, 2013 Rise Set
Actual Time 7:21 AM EST 5:11 PM EST
Civil Twilight 6:52 AM EST 5:40 PM EST
Nautical Twilight 6:19 AM EST 6:13 PM EST
Astronomical Twilight 5:47 AM EST 6:45 PM EST
Moon 11:35 AM EST (1/19) 12:54 AM EST (1/19)
Length of Visible Light 10h 47m
Length of Day
9h 49m
First Quarter, 57% of the Moon is Illuminated
Jan 19
First Quarter
Jan 26
Full
Feb 3
Last Quarter
Feb 10
New
Feb 17
First Quarter

Hourly Weather History & Observations

Time (EST) Temp. Windchill Dew Point Humidity Pressure Visibility Wind Dir Wind Speed Gust Speed Precip Events Conditions
12:00 AM 33.8 °F 27.0 °F 19.4 °F 56% 30.45 in 10.0 mi SSE 8.1 mph - N/A   Clear
12:42 AM 33.8 °F 26.4 °F 21.2 °F 60% 30.43 in 10.0 mi South 9.2 mph - N/A   Clear
1:03 AM 33.8 °F 27.7 °F 21.2 °F 60% 30.43 in 10.0 mi South 6.9 mph - N/A   Clear
1:24 AM 33.8 °F 27.7 °F 21.2 °F 60% 30.42 in 10.0 mi SSE 6.9 mph - N/A   Clear
1:45 AM 33.8 °F 27.7 °F 23.0 °F 65% 30.42 in 10.0 mi South 6.9 mph - N/A   Clear
2:09 AM 33.8 °F 28.6 °F 23.0 °F 65% 30.43 in 10.0 mi South 5.8 mph - N/A   Clear
2:30 AM 33.8 °F 27.7 °F 23.0 °F 65% 30.43 in 10.0 mi South 6.9 mph - N/A   Clear
2:51 AM 33.8 °F 28.6 °F 23.0 °F 65% 30.42 in 10.0 mi SSE 5.8 mph - N/A   Clear
3:12 AM 33.8 °F 27.0 °F 23.0 °F 65% 30.41 in 10.0 mi SSE 8.1 mph - N/A   Clear
3:33 AM 32.0 °F 25.6 °F 24.8 °F 75% 30.40 in 10.0 mi SSE 6.9 mph - N/A   Clear
3:54 AM 33.8 °F 27.7 °F 24.8 °F 70% 30.39 in 10.0 mi SSE 6.9 mph - N/A   Clear
4:15 AM 32.0 °F 27.5 °F 24.8 °F 75% 30.39 in 10.0 mi South 4.6 mph - N/A   Clear
4:36 AM 33.8 °F 27.7 °F 26.6 °F 75% 30.38 in 10.0 mi South 6.9 mph - N/A   Clear
4:57 AM 33.8 °F 27.0 °F 26.6 °F 75% 30.38 in 10.0 mi South 8.1 mph - N/A   Clear
5:21 AM 33.8 °F 27.0 °F 26.6 °F 75% 30.38 in 10.0 mi South 8.1 mph - N/A   Clear
5:30 AM 33.8 °F 27.7 °F 26.6 °F 75% 30.37 in 10.0 mi South 6.9 mph - N/A   Clear
5:45 AM 33.8 °F 27.0 °F 24.8 °F 70% 30.37 in 10.0 mi South 8.1 mph - N/A   Clear
6:55 AM 33.8 °F 27.7 °F 24.8 °F 70% 30.36 in 10.0 mi South 6.9 mph - N/A   Partly Cloudy
7:45 AM 35.6 °F 29.9 °F 24.8 °F 65% 30.36 in 10.0 mi South 6.9 mph - N/A   Partly Cloudy
8:45 AM 37.4 °F 30.8 °F 26.6 °F 65% 30.36 in 10.0 mi South 9.2 mph - N/A   Partly Cloudy
9:45 AM 41.0 °F 34.7 °F 26.6 °F 57% 30.36 in 10.0 mi South 10.4 mph 19.6 mph N/A   Clear
10:45 AM 44.6 °F 39.7 °F 26.6 °F 49% 30.33 in 10.0 mi SSW 9.2 mph - N/A   Clear
11:45 AM 46.4 °F 42.9 °F 26.6 °F 46% 30.28 in 10.0 mi South 6.9 mph - N/A   Clear
12:45 PM 50.0 °F - 28.4 °F 43% 30.23 in 10.0 mi South 4.6 mph - N/A   Clear
1:50 PM 48.2 °F - 33.8 °F 58% 30.20 in 10.0 mi SE 10.4 mph - N/A   Clear
2:45 PM 48.2 °F - 35.6 °F 62% 30.16 in 10.0 mi SE 10.4 mph - N/A   Clear
3:45 PM 48.2 °F - 35.6 °F 62% 30.14 in 10.0 mi SE 10.4 mph - N/A   Clear
4:45 PM 46.4 °F 44.3 °F 35.6 °F 66% 30.11 in 10.0 mi SE 4.6 mph - N/A   Clear
5:45 PM 46.4 °F 42.4 °F 32.0 °F 57% 30.10 in 10.0 mi SSE 8.1 mph - N/A   Clear
6:45 PM 44.6 °F 41.4 °F 32.0 °F 61% 30.10 in 10.0 mi SSE 5.8 mph - N/A   Clear
7:45 PM 42.8 °F 38.0 °F 35.6 °F 76% 30.09 in 10.0 mi SSE 8.1 mph - N/A   Clear
8:55 PM 44.6 °F 40.7 °F 32.0 °F 61% 30.06 in 10.0 mi South 6.9 mph - N/A   Clear
9:45 PM 46.4 °F 42.9 °F 28.4 °F 50% 30.05 in 10.0 mi South 6.9 mph - N/A   Clear
10:21 PM 44.6 °F 39.7 °F 28.4 °F 53% 30.04 in 10.0 mi South 9.2 mph - N/A   Clear
10:42 PM 44.6 °F 39.2 °F 28.4 °F 53% 30.03 in 10.0 mi South 10.4 mph - N/A   Clear
11:03 PM 44.6 °F 39.7 °F 28.4 °F 53% 30.01 in 10.0 mi South 9.2 mph - N/A   Clear
11:24 PM 44.6 °F 39.2 °F 28.4 °F 53% 29.99 in 10.0 mi South 10.4 mph 16.1 mph N/A   Clear
11:45 PM 44.6 °F 40.2 °F 28.4 °F 53% 29.99 in 10.0 mi South 8.1 mph - N/A   Clear